Location: *
(37.5724°S, 58.0067°E)
Time: 10:32:18
(UTC+00:00)

Cosmos 1980 - Pass Details

Date: 30 January 2021
Orbit: 840 x 846 km, 71.0° (Epoch: 07 March)

Event Time Altitude Azimuth Distance (km) Brightness Sun altitude
Rises 21:39:14 0° 205° (SSW) 3,439 7.4 -32.1°
Reaches altitude 10° 21:41:43 10° 207° (SSW) 2,496 6.6 -31.9°
Enters shadow 21:45:26 41° 218° (SW) 1,214 4.6 -31.6°
